THOR BURNER 2A DEB

Satellite information

Favourite Embed

Satellite Type and Status

DEBRISIN ORBIT

Key statistics

Satellite THOR BURNER 2A DEB at a glance.

Uptime

18681

Days in orbit

Revolutions

≈ 14.2

Per day

Orbit

SSO

Sun Synchronous Orbit

Inclination

99.0

Latest

Satellite identification and parameters

Extended collection of information and parameters for THOR BURNER 2A DEB.

Object identification

Identified? True

Debris? True

Object name: THOR BURNER 2A DEB

International designator: 1974-015C

Object number (NORAD): 28591

Object ID (CCSDS): 28591

Country: UNITED STATES OF AMERICA (US)

Current information (Y/N): Y

RCS size: MEDIUM

Orbital parameters

Period: 101.256 minutes

Inclination: 98.9799 deg

SMA: 7196.282 km

Apoapsis: 851.087 km

Periapsis: 785.207 km

RAAN: 25.2863 deg

Eccentricy: 0.0045774

Argument of periapsis: 200.3497 deg

Mean anomaly: 181.6605 deg

Mean motion: 14.22134003 rev/day

Mean motion (dot): 0.00000271 rev/day2

B* drag term: 0.00014176 1/REarth

Two-line elements (TLE)

Creation date: May 8, 2025, 3:01 a.m.

Reference frame: TEME

Reference center: EARTH

Epoch: May 7, 2025, 11:09 p.m. UTC

TLE line 0: 0 THOR BURNER 2A DEB

TLE line 1: 1 28591U 74015C 25127.96518358 .00000271 00000-0 14176-3 0 9996

TLE line 2: 2 28591 98.9799 25.2863 0045774 200.3497 181.6605 14.22134003 52235

Live tracking on map

Real-time ground track for satellite THOR BURNER 2A DEB.

In-orbit conjunctions

A list of the most updated potential collisions computed for object THOR BURNER 2A DEB.

Target Orbit TCA Probability of collision Miss distance Type
SL-3 R/B LEO 2024-11-13 08:27:54 0.0001587468 58.0 (m) ROCKET BODY
CZ-6A DEB LEO 2024-09-29 19:44:38 0.0001332683 319.0 (m) DEBRIS

Associated space launch

Military meteorological satellite

THOR BURNER 2A DEB was lifted into orbit during the mission ‘Thor Burner 2A | DMSP-5B F5’, on board a Thor Burner 2A space rocket.

The launch took place on March 16, 1974, 8 a.m. from Space Launch Complex 10W.

For more information about the launch, click the button.

Launch to space Thor Burner 2A | DMSP-5B F5
Thor Burner 2A | DMSP-5B F5

Agency: N/A

Status: Launch Successful

Launch date: March 16, 1974, 8 a.m. UTC

Rocket: Thor Burner 2A

Launch pad: Space Launch Complex 10W

Location: Vandenberg SFB, CA, USA

...

Latest news about this satellite

There are no fresh news available about this satellite. Check back as we update our databases every day.


Newsletter sign-up

Weekly statistics, charts and insights to help you stay on top of the space industry.